| time (UTC) | temp F | wind direction | speed MPH | gust MPH | rain 1hr in | rain 24hr in | rain mn in | humidity % | barometer mb |
| 20260506091004 | 66 | 187 | 2.0 | 8.0 | 0.00 | 0.04 | 0.00 | 73 | 1007.1 |
| 20260506090504 | 66 | 252 | 3.0 | 9.0 | 0.00 | 0.04 | 0.00 | 73 | 1007.0 |
| 20260506090004 | 66 | 243 | 1.0 | 5.0 | 0.00 | 0.04 | 0.00 | 73 | 1007.1 |
| 20260506085004 | 66 | 194 | 3.0 | 8.0 | 0.00 | 0.04 | 0.00 | 72 | 1007.2 |
| 20260506084504 | 66 | 237 | 1.0 | 5.0 | 0.00 | 0.04 | 0.00 | 71 | 1007.2 |
| 20260506084004 | 66 | 262 | 0.0 | 2.0 | 0.00 | 0.04 | 0.00 | 70 | 1007.2 |
| 20260506083503 | 66 | 261 | 1.0 | 3.0 | 0.00 | 0.04 | 0.00 | 70 | 1007.3 |
| 20260506083004 | 67 | 228 | 1.0 | 3.0 | 0.00 | 0.04 | 0.00 | 69 | 1007.3 |
| 20260506082004 | 67 | 245 | 1.0 | 10.0 | 0.00 | 0.04 | 0.00 | 68 | 1007.3 |
| 20260506081504 | 67 | 243 | 1.0 | 10.0 | 0.00 | 0.04 | 0.00 | 68 | 1007.4 |
| 20260506081003 | 67 | 188 | 1.0 | 3.0 | 0.00 | 0.04 | 0.00 | 67 | 1007.3 |
| 20260506073504 | 68 | 193 | 1.0 | 6.0 | 0.00 | 0.04 | 0.00 | 64 | 1007.4 |
| 20260506073004 | 69 | 205 | 1.0 | 13.0 | 0.00 | 0.04 | 0.00 | 63 | 1007.4 |
| 20260506072503 | 69 | 200 | 0.0 | 10.0 | 0.00 | 0.04 | 0.00 | 63 | 1007.4 |
| 20260506072003 | 69 | 257 | 0.0 | 2.0 | 0.00 | 0.04 | 0.00 | 62 | 1007.3 |
| 20260506071503 | 69 | 246 | 1.0 | 3.0 | 0.00 | 0.04 | 0.00 | 62 | 1007.3 |
| 20260506071003 | 69 | 219 | 2.0 | 10.0 | 0.00 | 0.04 | 0.00 | 61 | 1007.4 |
| 20260506070504 | 69 | 243 | 1.0 | 8.0 | 0.00 | 0.04 | 0.00 | 61 | 1007.5 |
| 20260506062503 | 70 | 240 | 2.0 | 10.0 | 0.00 | 0.04 | 0.00 | 59 | 1007.7 |
| 20260506062004 | 70 | 221 | 1.0 | 12.0 | 0.00 | 0.04 | 0.00 | 59 | 1007.7 |
| 20260506061504 | 70 | 270 | 1.0 | 7.0 | 0.00 | 0.04 | 0.00 | 59 | 1007.8 |
| 20260506061003 | 70 | 259 | 3.0 | 10.0 | 0.00 | 0.04 | 0.00 | 59 | 1007.7 |
| 20260506051004 | 71 | 265 | 2.0 | 7.0 | 0.00 | 0.04 | 0.00 | 58 | 1008.1 |
| 20260506050505 | 71 | 254 | 1.0 | 5.0 | 0.00 | 0.04 | 0.00 | 58 | 1008.2 |
| 20260506045004 | 71 | 208 | 1.0 | 7.0 | 0.00 | 0.04 | 0.00 | 58 | 1008.2 |
| 20260506044503 | 71 | 251 | 2.0 | 10.0 | 0.00 | 0.04 | 0.00 | 58 | 1008.2 |
| 20260506044004 | 71 | 171 | 2.0 | 8.0 | 0.00 | 0.04 | 0.00 | 58 | 1008.3 |
| 20260506043505 | 71 | 203 | 1.0 | 9.0 | 0.00 | 0.04 | 0.00 | 58 | 1008.2 |
| 20260506043004 | 71 | 257 | 2.0 | 10.0 | 0.00 | 0.04 | 0.00 | 58 | 1008.3 |
| 20260506042505 | 71 | 264 | 2.0 | 7.0 | 0.00 | 0.04 | 0.00 | 58 | 1008.1 |
| 20260506042004 | 71 | 271 | 2.0 | 12.0 | 0.00 | 0.04 | 0.00 | 57 | 1008.1 |
| 20260506041504 | 71 | 212 | 1.0 | 7.0 | 0.00 | 0.04 | 0.00 | 57 | 1008.1 |
| 20260506041004 | 72 | 263 | 2.0 | 12.0 | 0.00 | 0.04 | 0.00 | 55 | 1008.0 |
| 20260506040504 | 72 | 202 | 1.0 | 6.0 | 0.00 | 0.04 | 0.00 | 55 | 1008.0 |
| 20260506040004 | 72 | 202 | 1.0 | 7.0 | 0.00 | 0.04 | 0.00 | 54 | 1007.9 |
| 20260506035504 | 72 | 210 | 1.0 | 7.0 | 0.00 | 0.04 | 0.04 | 54 | 1008.0 |
| 20260506035004 | 72 | 203 | 2.0 | 8.0 | 0.00 | 0.04 | 0.04 | 53 | 1008.0 |
| 20260506034504 | 72 | 203 | 5.0 | 10.0 | 0.00 | 0.04 | 0.04 | 52 | 1008.0 |
| 20260506034004 | 72 | 234 | 2.0 | 9.0 | 0.00 | 0.04 | 0.04 | 52 | 1008.0 |
| 20260506033503 | 73 | 178 | 1.0 | 12.0 | 0.00 | 0.04 | 0.04 | 51 | 1007.9 |
| 20260506032504 | 73 | 220 | 4.0 | 8.0 | 0.00 | 0.04 | 0.04 | 50 | 1007.9 |
| 20260506032004 | 73 | 285 | 1.0 | 5.0 | 0.00 | 0.04 | 0.04 | 49 | 1007.9 |
| 20260506031504 | 73 | 185 | 1.0 | 7.0 | 0.00 | 0.04 | 0.04 | 49 | 1007.8 |
| 20260506031004 | 74 | 223 | 1.0 | 7.0 | 0.00 | 0.04 | 0.04 | 48 | 1007.8 |
| 20260506030504 | 74 | 284 | 1.0 | 8.0 | 0.00 | 0.04 | 0.04 | 48 | 1007.7 |
| 20260506030004 | 74 | 298 | 1.0 | 5.0 | 0.00 | 0.04 | 0.04 | 48 | 1007.8 |
| 20260506025004 | 74 | 233 | 2.0 | 10.0 | 0.00 | 0.04 | 0.04 | 47 | 1007.7 |
| 20260506024505 | 74 | 242 | 3.0 | 12.0 | 0.00 | 0.04 | 0.04 | 47 | 1007.7 |
| 20260506024004 | 74 | 246 | 1.0 | 7.0 | 0.00 | 0.04 | 0.04 | 47 | 1007.8 |
| 20260506023504 | 75 | 243 | 3.0 | 12.0 | 0.00 | 0.04 | 0.04 | 47 | 1007.7 |
| 20260506023004 | 75 | 224 | 3.0 | 8.0 | 0.00 | 0.04 | 0.04 | 46 | 1007.7 |
| 20260506022504 | 75 | 123 | 2.0 | 10.0 | 0.00 | 0.04 | 0.04 | 46 | 1007.6 |
| 20260506022003 | 75 | 265 | 2.0 | 8.0 | 0.00 | 0.04 | 0.04 | 46 | 1007.6 |
| 20260506021504 | 75 | 255 | 2.0 | 8.0 | 0.00 | 0.04 | 0.04 | 46 | 1007.6 |
| 20260506020504 | 75 | 198 | 2.0 | 15.0 | 0.00 | 0.04 | 0.04 | 45 | 1007.5 |
| 20260506020004 | 75 | 258 | 2.0 | 16.0 | 0.00 | 0.04 | 0.04 | 45 | 1007.5 |
| 20260506015505 | 76 | 190 | 2.0 | 9.0 | 0.00 | 0.04 | 0.04 | 44 | 1007.6 |
| 20260506015003 | 76 | 205 | 5.0 | 9.0 | 0.00 | 0.04 | 0.04 | 44 | 1007.6 |
| 20260506014504 | 76 | 270 | 2.0 | 8.0 | 0.00 | 0.04 | 0.04 | 43 | 1007.5 |
| 20260506014004 | 76 | 222 | 2.0 | 7.0 | 0.00 | 0.04 | 0.04 | 43 | 1007.5 |
| 20260506013004 | 76 | 237 | 1.0 | 5.0 | 0.00 | 0.04 | 0.04 | 41 | 1007.4 |
| 20260506012503 | 77 | 211 | 1.0 | 7.0 | 0.00 | 0.04 | 0.04 | 40 | 1007.3 |
| 20260506012004 | 77 | 277 | 1.0 | 7.0 | 0.00 | 0.04 | 0.04 | 40 | 1007.3 |
| 20260506011504 | 77 | 109 | 3.0 | 13.0 | 0.00 | 0.04 | 0.04 | 40 | 1007.2 |
| 20260506011004 | 77 | 274 | 3.0 | 7.0 | 0.00 | 0.04 | 0.04 | 39 | 1007.1 |
| 20260506010504 | 77 | 274 | 1.0 | 12.0 | 0.00 | 0.04 | 0.04 | 40 | 1007.0 |
| 20260506005004 | 77 | 249 | 2.0 | 6.0 | 0.00 | 0.04 | 0.04 | 39 | 1006.9 |
| 20260506004504 | 77 | 158 | 2.0 | 13.0 | 0.00 | 0.04 | 0.04 | 38 | 1006.9 |
| 20260506004004 | 77 | 200 | 4.0 | 12.0 | 0.00 | 0.04 | 0.04 | 39 | 1006.8 |
| 20260506003004 | 77 | 211 | 1.0 | 7.0 | 0.00 | 0.04 | 0.04 | 39 | 1006.8 |
| 20260506002004 | 77 | 249 | 1.0 | 7.0 | 0.00 | 0.04 | 0.04 | 38 | 1006.7 |
| 20260506001503 | 77 | 292 | 1.0 | 3.0 | 0.00 | 0.04 | 0.04 | 39 | 1006.7 |
| 20260506001004 | 77 | 125 | 2.0 | 7.0 | 0.00 | 0.04 | 0.04 | 38 | 1006.7 |
| 20260506000503 | 77 | 189 | 1.0 | 3.0 | 0.00 | 0.04 | 0.04 | 38 | 1006.7 |
| 20260506000004 | 77 | 185 | 1.0 | 8.0 | 0.00 | 0.04 | 0.04 | 38 | 1006.6 |
| 20260505235004 | 78 | 228 | 3.0 | 15.0 | 0.00 | 0.04 | 0.04 | 37 | 1006.6 |
| 20260505234504 | 78 | 217 | 5.0 | 15.0 | 0.00 | 0.04 | 0.04 | 37 | 1006.5 |
| 20260505234004 | 78 | 228 | 2.0 | 12.0 | 0.00 | 0.04 | 0.04 | 37 | 1006.5 |
| 20260505233504 | 78 | 224 | 3.0 | 15.0 | 0.00 | 0.04 | 0.04 | 37 | 1006.4 |
| 20260505233004 | 78 | 193 | 2.0 | 12.0 | 0.00 | 0.04 | 0.04 | 37 | 1006.4 |
| 20260505232004 | 79 | 266 | 3.0 | 10.0 | 0.00 | 0.04 | 0.04 | 36 | 1006.1 |
| 20260505231004 | 79 | 277 | 6.0 | 20.0 | 0.00 | 0.04 | 0.04 | 36 | 1006.1 |
| 20260505230504 | 79 | 222 | 2.0 | 12.0 | 0.00 | 0.04 | 0.04 | 37 | 1006.1 |
| 20260505230003 | 79 | 241 | 4.0 | 13.0 | 0.00 | 0.04 | 0.04 | 36 | 1006.1 |
| 20260505225505 | 80 | 222 | 3.0 | 12.0 | 0.00 | 0.04 | 0.04 | 35 | 1006.0 |
| 20260505225004 | 80 | 280 | 2.0 | 9.0 | 0.00 | 0.04 | 0.04 | 36 | 1005.9 |
| 20260505224504 | 80 | 257 | 3.0 | 10.0 | 0.00 | 0.04 | 0.04 | 36 | 1005.8 |
| 20260505223504 | 80 | 232 | 2.0 | 10.0 | 0.00 | 0.04 | 0.04 | 35 | 1005.7 |
| 20260505223004 | 80 | 254 | 3.0 | 14.0 | 0.00 | 0.04 | 0.04 | 35 | 1005.6 |
| 20260505222504 | 80 | 251 | 4.0 | 12.0 | 0.00 | 0.04 | 0.04 | 35 | 1005.6 |
| 20260505222004 | 80 | 200 | 5.0 | 14.0 | 0.00 | 0.04 | 0.04 | 34 | 1005.7 |
| 20260505221504 | 80 | 215 | 5.0 | 15.0 | 0.00 | 0.04 | 0.04 | 35 | 1005.6 |
| 20260505221003 | 81 | 231 | 7.0 | 16.0 | 0.00 | 0.04 | 0.04 | 34 | 1005.5 |
| 20260505220504 | 82 | 240 | 6.0 | 13.0 | 0.00 | 0.04 | 0.04 | 33 | 1005.3 |
| 20260505220004 | 82 | 251 | 5.0 | 12.0 | 0.00 | 0.04 | 0.04 | 32 | 1005.2 |
| 20260505215505 | 82 | 210 | 2.0 | 12.0 | 0.00 | 0.04 | 0.04 | 34 | 1005.2 |
| 20260505215004 | 82 | 208 | 5.0 | 12.0 | 0.00 | 0.04 | 0.04 | 32 | 1005.1 |
| 20260505214504 | 82 | 192 | 6.0 | 18.0 | 0.00 | 0.04 | 0.04 | 32 | 1005.3 |
| 20260505214003 | 82 | 243 | 2.0 | 12.0 | 0.00 | 0.04 | 0.04 | 34 | 1005.3 |
| 20260505213504 | 82 | 206 | 8.0 | 20.0 | 0.00 | 0.04 | 0.04 | 33 | 1005.3 |
| 20260505213004 | 82 | 218 | 2.0 | 9.0 | 0.00 | 0.04 | 0.04 | 34 | 1005.3 |
| 20260505212004 | 81 | 240 | 2.0 | 10.0 | 0.00 | 0.04 | 0.04 | 36 | 1005.3 |
| 20260505211504 | 81 | 194 | 2.0 | 12.0 | 0.00 | 0.04 | 0.04 | 34 | 1005.3 |
| 20260505210004 | 82 | 265 | 5.0 | 15.0 | 0.00 | 0.04 | 0.04 | 33 | 1005.0 |
| 20260505205004 | 82 | 217 | 3.0 | 8.0 | 0.00 | 0.04 | 0.04 | 33 | 1004.9 |
| 20260505204504 | 83 | 227 | 4.0 | 10.0 | 0.00 | 0.04 | 0.04 | 33 | 1004.8 |
| 20260505204003 | 83 | 213 | 5.0 | 23.0 | 0.00 | 0.04 | 0.04 | 33 | 1004.8 |
| 20260505203004 | 83 | 245 | 1.0 | 9.0 | 0.00 | 0.04 | 0.04 | 35 | 1004.9 |
| 20260505202004 | 82 | 153 | 2.0 | 8.0 | 0.00 | 0.04 | 0.04 | 34 | 1005.0 |
| 20260505201503 | 82 | 229 | 5.0 | 15.0 | 0.00 | 0.04 | 0.04 | 33 | 1005.2 |
| 20260505201004 | 82 | 267 | 1.0 | 12.0 | 0.00 | 0.04 | 0.04 | 35 | 1005.3 |
| 20260505200504 | 83 | 238 | 6.0 | 20.0 | 0.00 | 0.04 | 0.04 | 33 | 1005.4 |
| 20260505200004 | 83 | 266 | 5.0 | 23.0 | 0.00 | 0.04 | 0.04 | 35 | 1005.3 |
| 20260505195503 | 83 | 263 | 5.0 | 9.0 | 0.00 | 0.04 | 0.04 | 34 | 1005.3 |
| 20260505195004 | 83 | 240 | 3.0 | 15.0 | 0.00 | 0.04 | 0.04 | 34 | 1005.3 |
| 20260505194504 | 83 | 282 | 3.0 | 9.0 | 0.00 | 0.04 | 0.04 | 34 | 1005.4 |
| 20260505194003 | 83 | 204 | 2.0 | 12.0 | 0.00 | 0.04 | 0.04 | 35 | 1005.5 |
| 20260505193504 | 83 | 274 | 2.0 | 12.0 | 0.00 | 0.04 | 0.04 | 35 | 1005.4 |
| 20260505193003 | 83 | 231 | 2.0 | 16.0 | 0.00 | 0.04 | 0.04 | 36 | 1005.5 |
| 20260505192504 | 83 | 235 | 5.0 | 12.0 | 0.00 | 0.04 | 0.04 | 35 | 1005.6 |
| 20260505192004 | 83 | 280 | 2.0 | 12.0 | 0.00 | 0.04 | 0.04 | 36 | 1005.7 |
| 20260505191504 | 83 | 226 | 5.0 | 16.0 | 0.00 | 0.04 | 0.04 | 37 | 1005.6 |
| 20260505191003 | 83 | 242 | 3.0 | 12.0 | 0.00 | 0.04 | 0.04 | 36 | 1005.9 |
| 20260505190004 | 83 | 201 | 2.0 | 7.0 | 0.00 | 0.04 | 0.04 | 37 | 1005.9 |
| 20260505185503 | 82 | 254 | 5.0 | 15.0 | 0.00 | 0.04 | 0.04 | 36 | 1006.0 |
| 20260505185004 | 83 | 216 | 2.0 | 8.0 | 0.00 | 0.04 | 0.04 | 36 | 1006.1 |
| 20260505184504 | 83 | 259 | 5.0 | 9.0 | 0.00 | 0.04 | 0.04 | 36 | 1006.0 |
| 20260505184003 | 82 | 256 | 7.0 | 13.0 | 0.00 | 0.04 | 0.04 | 37 | 1006.2 |
| 20260505183504 | 82 | 258 | 3.0 | 10.0 | 0.00 | 0.04 | 0.04 | 39 | 1006.3 |
| 20260505183004 | 82 | 256 | 3.0 | 9.0 | 0.00 | 0.04 | 0.04 | 40 | 1006.4 |
| 20260505182503 | 81 | 202 | 4.0 | 10.0 | 0.00 | 0.04 | 0.04 | 40 | 1006.5 |
| 20260505182004 | 81 | 244 | 5.0 | 10.0 | 0.00 | 0.04 | 0.04 | 41 | 1006.7 |
| 20260505181504 | 81 | 248 | 1.0 | 15.0 | 0.00 | 0.04 | 0.04 | 42 | 1006.7 |
| 20260505180503 | 81 | 265 | 3.0 | 12.0 | 0.00 | 0.04 | 0.04 | 42 | 1006.6 |
| 20260505175503 | 81 | 277 | 5.0 | 13.0 | 0.00 | 0.04 | 0.04 | 40 | 1006.6 |
| 20260505175003 | 81 | 273 | 5.0 | 14.0 | 0.00 | 0.04 | 0.04 | 41 | 1006.6 |
| 20260505174504 | 81 | 287 | 1.0 | 12.0 | 0.00 | 0.04 | 0.04 | 43 | 1006.8 |
| 20260505174004 | 80 | 268 | 5.0 | 12.0 | 0.00 | 0.04 | 0.04 | 42 | 1006.9 |
| 20260505173504 | 81 | 282 | 5.0 | 18.0 | 0.00 | 0.04 | 0.04 | 40 | 1006.6 |
| 20260505173004 | 81 | 268 | 3.0 | 15.0 | 0.00 | 0.04 | 0.04 | 41 | 1006.8 |
| 20260505172504 | 81 | 272 | 3.0 | 12.0 | 0.00 | 0.04 | 0.04 | 41 | 1007.0 |
| 20260505172005 | 81 | 238 | 3.0 | 14.0 | 0.00 | 0.04 | 0.04 | 41 | 1007.0 |
| 20260505171504 | 81 | 263 | 3.0 | 12.0 | 0.00 | 0.04 | 0.04 | 42 | 1007.0 |
| 20260505171004 | 81 | 256 | 3.0 | 12.0 | 0.00 | 0.04 | 0.04 | 43 | 1007.0 |
| 20260505170504 | 81 | 255 | 3.0 | 15.0 | 0.00 | 0.04 | 0.04 | 44 | 1007.0 |
| 20260505165504 | 80 | 235 | 4.0 | 12.0 | 0.00 | 0.04 | 0.04 | 44 | 1007.2 |
| 20260505165004 | 80 | 270 | 5.0 | 12.0 | 0.00 | 0.04 | 0.04 | 43 | 1007.2 |
| 20260505164504 | 80 | 230 | 3.0 | 12.0 | 0.00 | 0.04 | 0.04 | 43 | 1007.4 |
| 20260505164004 | 80 | 266 | 3.0 | 12.0 | 0.00 | 0.04 | 0.04 | 44 | 1007.6 |
| 20260505163504 | 80 | 258 | 5.0 | 15.0 | 0.00 | 0.04 | 0.04 | 44 | 1007.6 |
| 20260505163004 | 79 | 283 | 2.0 | 5.0 | 0.00 | 0.04 | 0.04 | 44 | 1007.6 |
| 20260505162004 | 78 | 269 | 3.0 | 8.0 | 0.00 | 0.04 | 0.04 | 47 | 1008.0 |
| 20260505161504 | 78 | 249 | 5.0 | 14.0 | 0.00 | 0.04 | 0.04 | 44 | 1008.0 |
| 20260505161004 | 78 | 294 | 4.0 | 12.0 | 0.00 | 0.04 | 0.04 | 46 | 1008.1 |
| 20260505160504 | 77 | 275 | 1.0 | 14.0 | 0.00 | 0.04 | 0.04 | 47 | 1008.2 |
| 20260505153004 | 77 | 249 | 3.0 | 9.0 | 0.00 | 0.04 | 0.04 | 49 | 1008.6 |
| 20260505152504 | 76 | 312 | 5.0 | 15.0 | 0.00 | 0.04 | 0.04 | 49 | 1008.6 |
| 20260505151504 | 76 | 257 | 5.0 | 12.0 | 0.00 | 0.04 | 0.04 | 49 | 1008.6 |
| 20260505151003 | 76 | 285 | 4.0 | 12.0 | 0.00 | 0.04 | 0.04 | 50 | 1008.6 |
| 20260505150504 | 76 | 280 | 7.0 | 13.0 | 0.00 | 0.04 | 0.04 | 48 | 1008.5 |
| 20260505140504 | 74 | 281 | 4.0 | 9.0 | 0.00 | 0.04 | 0.04 | 54 | 1008.8 |
| 20260505125004 | 63 | 290 | 0.0 | 0.0 | 0.00 | 0.04 | 0.04 | 81 | 1009.1 |
| 20260505124504 | 62 | 288 | 0.0 | 0.0 | 0.00 | 0.04 | 0.04 | 81 | 1008.7 |
| 20260505123503 | 61 | 288 | 0.0 | 0.0 | 0.00 | 0.04 | 0.04 | 83 | 1008.7 |
| 20260505123004 | 60 | 288 | 0.0 | 0.0 | 0.00 | 0.04 | 0.04 | 84 | 1008.8 |
| 20260505122504 | 59 | 288 | 0.0 | 0.0 | 0.00 | 0.04 | 0.04 | 85 | 1008.8 |
| 20260505122004 | 59 | 288 | 0.0 | 0.0 | 0.00 | 0.04 | 0.04 | 85 | 1008.9 |
| 20260505121004 | 58 | 288 | 0.0 | 0.0 | 0.00 | 0.04 | 0.04 | 87 | 1008.9 |
| 20260505120503 | 58 | 288 | 0.0 | 0.0 | 0.01 | 0.04 | 0.04 | 87 | 1008.9 |
| 20260505120005 | 57 | 288 | 0.0 | 3.0 | 0.01 | 0.04 | 0.04 | 87 | 1008.9 |
| 20260505115004 | 57 | 288 | 0.0 | 2.0 | 0.02 | 0.04 | 0.04 | 87 | 1009.0 |
| 20260505114504 | 57 | 288 | 0.0 | 0.0 | 0.03 | 0.04 | 0.04 | 87 | 1009.0 |
| 20260505114004 | 56 | 288 | 0.0 | 0.0 | 0.04 | 0.04 | 0.04 | 87 | 1009.0 |
| 20260505113504 | 56 | 288 | 0.0 | 1.0 | 0.04 | 0.04 | 0.04 | 87 | 1009.1 |
| 20260505113004 | 56 | 288 | 0.0 | 1.0 | 0.04 | 0.04 | 0.04 | 86 | 1009.0 |
| 20260505112004 | 56 | 288 | 1.0 | 5.0 | 0.04 | 0.04 | 0.04 | 86 | 1009.0 |
| 20260505111503 | 57 | 279 | 0.0 | 2.0 | 0.04 | 0.04 | 0.04 | 85 | 1008.9 |
| 20260505111004 | 56 | 279 | 0.0 | 1.0 | 0.04 | 0.04 | 0.04 | 85 | 1008.5 |
| 20260505110504 | 56 | 279 | 0.0 | 6.0 | 0.03 | 0.03 | 0.03 | 84 | 1008.7 |
| 20260505102004 | 51 | 247 | 0.0 | 0.0 | 0.00 | 0.00 | 0.00 | 82 | 1009.3 |
| 20260505101503 | 51 | 247 | 0.0 | 0.0 | 0.00 | 0.00 | 0.00 | 81 | 1009.4 |
| 20260505101003 | 51 | 247 | 0.0 | 0.0 | 0.00 | 0.00 | 0.00 | 81 | 1009.3 |
| 20260505100504 | 52 | 247 | 0.0 | 0.0 | 0.00 | 0.00 | 0.00 | 81 | 1009.3 |
| 20260505100004 | 52 | 247 | 0.0 | 0.0 | 0.00 | 0.00 | 0.00 | 81 | 1009.3 |
| 20260505095504 | 51 | 247 | 0.0 | 0.0 | 0.00 | 0.00 | 0.00 | 80 | 1009.0 |
| 20260505094504 | 52 | 247 | 0.0 | 0.0 | 0.00 | 0.00 | 0.00 | 80 | 1009.0 |
| 20260505092503 | 53 | 247 | 0.0 | 0.0 | 0.00 | 0.00 | 0.00 | 77 | 1008.6 |
| 20260505092004 | 53 | 247 | 0.0 | 0.0 | 0.00 | 0.00 | 0.00 | 77 | 1008.5 |
| 20260505091503 | 53 | 247 | 0.0 | 0.0 | 0.00 | 0.00 | 0.00 | 77 | 1008.3 |